CW7222 Weather Reports


Display with metric or nautical units.
time (UTC)temp
F
wind
direction
speed
MPH
gust
MPH
rain 1hr
in
rain 24hr
in
rain mn
in
humidity
%
barometer
mb
20260507164336 63 99 0.0 8.0 0.00 0.39 0.02 77 1010.5
20260507163344 63 86 1.0 6.0 0.00 0.39 0.02 76 1010.5
20260507162332 64 115 1.0 7.0 0.00 0.39 0.02 75 1010.5
20260507161340 64 95 0.0 6.0 0.00 0.39 0.02 75 1010.5
20260507160350 63 82 1.0 7.0 0.00 0.39 0.02 75 1010.5
20260507155341 64 94 0.0 5.0 0.00 0.39 0.02 75 1010.9
20260507154329 64 140 2.0 9.0 0.00 0.39 0.02 74 1010.9
20260507153340 64 124 0.0 2.0 0.00 0.39 0.02 72 1010.9
20260507152349 64 117 0.0 0.0 0.00 0.39 0.02 73 1010.8
20260507151336 64 136 1.0 8.0 0.00 0.39 0.02 72 1010.9
20260507145337 64 117 3.0 10.0 0.00 0.39 0.02 72 1010.8
20260507143351 64 153 1.0 10.0 0.00 0.39 0.02 71 1010.7
20260507141348 65 141 0.0 9.0 0.00 0.39 0.02 71 1011.1
20260507140336 65 114 0.0 7.0 0.00 0.39 0.02 70 1011.1
20260507135346 65 131 3.0 12.0 0.00 0.39 0.02 70 1011.4
20260507134332 65 142 0.0 6.0 0.00 0.39 0.02 70 1011.6
20260507133341 64 161 5.0 11.0 0.00 0.39 0.02 71 1011.6
20260507132349 64 123 2.0 10.0 0.00 0.39 0.02 69 1011.8
20260507131335 64 119 1.0 9.0 0.00 0.39 0.02 69 1012.0
20260507130343 64 88 3.0 9.0 0.00 0.39 0.02 68 1012.0
20260507125333 64 153 3.0 11.0 0.00 0.39 0.02 70 1012.1
20260507124342 64 150 6.0 10.0 0.00 0.39 0.02 70 1012.3
20260507123350 64 119 2.0 10.0 0.00 0.39 0.02 71 1012.3
20260507121347 64 136 3.0 11.0 0.00 0.39 0.02 72 1012.4
20260507115342 63 121 5.0 11.0 0.00 0.39 0.02 74 1012.3
20260507114350 63 135 0.0 10.0 0.00 0.39 0.02 75 1012.2
20260507113338 64 130 3.0 10.0 0.00 0.39 0.02 73 1012.2
20260507111335 63 102 0.0 11.0 0.00 0.39 0.02 74 1012.5
20260507110343 63 136 3.0 10.0 0.00 0.39 0.02 75 1012.5
20260507105331 63 141 0.0 9.0 0.00 0.39 0.02 74 1012.6
20260507104339 63 154 3.0 10.0 0.00 0.39 0.02 76 1012.8
20260507102332 63 138 1.0 8.0 0.00 0.39 0.02 76 1012.8
20260507101341 64 134 2.0 7.0 0.00 0.39 0.02 74 1012.9
20260507095340 64 111 2.0 8.0 0.00 0.39 0.02 75 1012.9
20260507094348 63 134 3.0 8.0 0.00 0.39 0.02 75 1013.0
20260507093331 63 103 0.0 6.0 0.00 0.39 0.02 74 1013.0
20260507092339 64 97 0.0 1.0 0.00 0.39 0.02 75 1012.9
20260507090335 63 147 0.0 6.0 0.00 0.39 0.02 75 1012.6
20260507083349 63 135 2.0 6.0 0.00 0.39 0.02 75 1012.6
20260507082337 63 105 2.0 7.0 0.00 0.39 0.02 76 1012.7
20260507080336 63 134 0.0 6.0 0.00 0.39 0.02 76 1012.6
20260507075348 63 146 3.0 6.0 0.00 0.39 0.02 76 1012.7
20260507074335 63 92 2.0 6.0 0.00 0.39 0.02 76 1012.8
20260507073347 62 136 4.0 8.0 0.00 0.39 0.02 77 1012.8
20260507072332 63 88 0.0 5.0 0.00 0.39 0.02 78 1012.7
20260507071341 62 130 2.0 7.0 0.00 0.39 0.02 77 1012.5
20260507070331 63 107 0.0 1.0 0.00 0.39 0.02 78 1012.5
20260507065339 62 74 0.0 0.0 0.00 0.39 0.02 80 1012.4
20260507063339 61 77 1.0 8.0 0.00 0.39 0.02 83 1012.3
20260507062347 60 49 0.0 0.0 0.00 0.39 0.02 85 1012.1
20260507061334 59 71 0.0 0.0 0.00 0.39 0.02 87 1012.0
20260507060346 58 78 0.0 0.0 0.00 0.39 0.02 88 1012.0
20260507055333 57 47 0.0 0.0 0.00 0.39 0.02 88 1011.9
20260507054342 56 53 0.0 0.0 0.00 0.39 0.02 89 1012.0
20260507051347 55 313 0.0 0.0 0.00 0.39 0.02 90 1011.5
20260507050339 55 314 0.0 0.0 0.00 0.39 0.02 90 1011.5
20260507045347 54 313 0.0 0.0 0.00 0.39 0.02 90 1011.5
20260507044334 54 313 0.0 0.0 0.00 0.39 0.02 90 1011.4
20260507043342 54 313 0.0 0.0 0.00 0.39 0.02 89 1011.4
20260507042349 55 313 0.0 0.0 0.00 0.39 0.02 90 1011.4
20260507041337 55 313 0.0 0.0 0.00 0.39 0.02 90 1011.4
20260507035340 55 313 0.0 0.0 0.00 0.39 0.02 90 1011.4
20260507034349 55 313 0.0 0.0 0.04 0.39 0.02 90 1011.5
20260507032347 55 313 0.0 0.0 0.04 0.39 0.02 89 1011.6
20260507031332 55 313 0.0 0.0 0.04 0.39 0.02 89 1011.5
20260507030344 55 314 0.0 0.0 0.04 0.39 0.02 89 1011.5
20260507025350 55 314 0.0 0.0 0.04 0.39 0.02 89 1011.5
20260507024338 55 315 0.0 0.0 0.00 0.35 0.01 89 1011.5
20260507022335 56 321 0.0 0.0 0.00 0.35 0.01 90 1011.5
20260507021343 55 321 0.0 0.0 0.00 0.35 0.01 89 1011.6
20260507020333 56 321 0.0 0.0 0.00 0.35 0.01 89 1011.6
20260507015340 56 321 0.0 0.0 0.00 0.35 0.01 89 1011.8
20260507014350 55 321 0.0 0.0 0.00 0.35 0.01 90 1011.7
20260507013334 55 321 0.0 0.0 0.00 0.35 0.01 89 1011.7
20260507012342 56 321 0.0 0.0 0.00 0.35 0.01 88 1011.7
20260507011332 56 323 0.0 0.0 0.00 0.35 0.01 88 1011.9
20260507010339 56 315 0.0 0.0 0.00 0.35 0.01 88 1011.9
20260507005349 57 317 0.0 0.0 0.00 0.35 0.01 88 1012.0
20260507004334 57 319 0.0 0.0 0.00 0.35 0.01 88 1012.0
20260507003343 57 322 0.0 0.0 0.00 0.35 0.01 87 1012.0
20260507002340 58 360 0.0 0.0 0.00 0.35 0.01 87 1012.0
20260507000343 58 360 0.0 0.0 0.00 0.35 0.01 88 1012.1
20260506235350 58 360 0.0 0.0 0.00 0.35 0.01 88 1012.2
20260506234336 58 360 0.0 0.0 0.00 0.35 0.01 88 1012.3
20260506233343 59 350 0.0 0.0 0.00 0.35 0.01 88 1012.3
20260506232331 59 340 0.0 0.0 0.00 0.35 0.01 88 1012.3
20260506231341 59 355 0.0 0.0 0.04 0.35 0.01 88 1012.3
20260506230350 59 355 0.0 0.0 0.04 0.35 0.01 89 1012.3
20260506225339 59 348 0.0 3.0 0.04 0.35 0.01 89 1012.1
20260506224346 59 355 3.0 6.0 0.04 0.35 0.01 88 1012.3
20260506223338 59 30 2.0 8.0 0.04 0.35 0.01 88 1012.3
20260506222347 59 348 3.0 7.0 0.04 0.35 0.01 88 1012.2
20260506221332 60 51 1.0 8.0 0.00 0.31 0.00 88 1012.2
20260506220341 60 49 0.0 0.0 0.00 0.31 0.00 89 1012.2
20260506215348 60 17 0.0 0.0 0.00 0.31 0.06 88 1012.0
20260506213348 61 159 0.0 0.0 0.00 0.31 0.06 89 1012.0
20260506212336 61 168 0.0 0.0 0.00 0.31 0.06 89 1012.0
20260506211343 61 157 0.0 0.0 0.08 0.31 0.06 89 1011.9
20260506210333 61 157 0.0 0.0 0.08 0.31 0.06 90 1011.9
20260506205336 61 157 0.0 0.0 0.28 0.31 0.06 90 1011.9
20260506204344 61 157 0.0 0.0 0.31 0.31 0.06 89 1011.6
20260506201339 62 159 1.0 7.0 0.24 0.24 0.05 88 1011.3
20260506200349 62 115 2.0 8.0 0.24 0.24 0.05 87 1011.3
20260506195350 62 129 3.0 8.0 0.04 0.04 0.01 85 1010.9
20260506193331 63 134 3.0 6.0 0.00 0.00 0.00 85 1010.9
20260506192339 62 132 0.0 5.0 0.00 0.00 0.00 84 1010.6
20260506191347 62 136 0.0 5.0 0.00 0.00 0.00 84 1010.5
20260506190332 63 126 3.0 6.0 0.00 0.00 0.00 83 1010.5
20260506185341 63 143 4.0 7.0 0.00 0.00 0.00 83 1010.4
20260506184331 63 136 3.0 9.0 0.00 0.00 0.00 83 1010.2
20260506183342 63 153 3.0 9.0 0.00 0.00 0.00 82 1010.2
20260506182351 63 176 5.0 9.0 0.00 0.00 0.00 82 1009.9
20260506181338 63 138 5.0 10.0 0.00 0.00 0.00 82 1009.9
20260506180347 63 164 5.0 7.0 0.00 0.00 0.00 82 1009.9
20260506175351 63 140 5.0 9.0 0.00 0.00 0.00 82 1009.9
20260506174339 63 120 4.0 9.0 0.00 0.00 0.00 81 1009.8
20260506173349 64 177 5.0 8.0 0.00 0.00 0.00 81 1009.8
20260506172337 64 129 6.0 9.0 0.00 0.00 0.00 80 1009.6
20260506170334 64 153 4.0 9.0 0.00 0.00 0.00 80 1009.5
20260506165343 64 132 6.0 10.0 0.00 0.00 0.00 78 1009.4